Station GBWW3 - 9087077 - Green Bay West, WI Image indicating link to RSS feed of recent meteorological observations for station GBWW3


Conditions at GBWW3 as of
(3:30 pm CDT)
2030 GMT on 05/28/2024:
     

Click on the graph icon in the table below to see a time series plot of the last five days of that observation.

5-day plot - Wind Direction Wind Direction (WDIR):ENE ( 60 deg true )
5-day plot - Wind Speed Wind Speed (WSPD): 8.0 kts
5-day plot - Wind Gust Wind Gust (GST): 11.1 kts
5-day plot - Wind Speed at 10 Meters Wind Speed at 10 meters (WSPD10M): 7.8 kts
5-day plot - Wind Speed at 20 Meters Wind Speed at 20 meters (WSPD20M): 9.7 kts
5-day plot -  Wind Speed, Wind Gust and Atmospheric Pressure Combined plot of Wind Speed, Gust, and Air Pressure
NOS Water Level Observation Network Water Level
Previous observations
TIME
(CDT)
5-day plot - Wind Direction
WDIR
 
5-day plot - Wind Speed
WSPD
kts
5-day plot - Wind Gust
GST
kts
5-day plot - Wave Height
WVHT
ft
5-day plot - Dominant Wave Period
DPD
sec
5-day plot - Average Wave Period
APD
sec
5-day plot - Mean Wave Direction
MWD
 
5-day plot - Atmospheric Pressure
PRES
in
5-day plot - Pressure Tendency
PTDY
in
5-day plot - Air Temperature
ATMP
°F
5-day plot - Water Temperature
WTMP
°F
5-day plot - Dew Point
DEWP
°F
5-day plot - Salinity
SAL
psu
5-day plot - Visibility
VIS
nmi
5-day plot - Tide (above MLLW)
TIDE
ft
2024-05-28 03:24 pmENE 7.0 8.9------------
2024-05-28 03:18 pm NE 7.0 9.9----29.93-------
2024-05-28 03:12 pm NE 8.0 9.9----29.93-------
2024-05-28 03:06 pmNNE 8.9 11.1----29.93-------
2024-05-28 03:00 pmNNE 8.9 12.0----29.93+0.02 62.6-----
2024-05-28 02:54 pmNNE 8.9 11.1----29.93- 62.4-----
2024-05-28 02:48 pmNNE 8.9 11.1----29.93- 62.4-----
2024-05-28 02:42 pmNNE 8.9 12.0----29.93- 62.1-----
2024-05-28 02:36 pmNNE 9.9 11.1----29.93- 61.7-----
2024-05-28 02:30 pmNNE 8.9 12.0----29.93- 61.5-----
2024-05-28 02:24 pmNNE 9.9 12.0----29.93- 61.7-----
2024-05-28 02:18 pmNNE 8.9 12.0----29.93- 61.9-----
2024-05-28 02:12 pmNNE 9.9 12.0----29.92- 61.9-----
2024-05-28 02:06 pmNNE 9.9 12.0----29.92- 61.5-----
2024-05-28 02:00 pmNNE 9.9 12.0----29.92+0.02 61.3-----
2024-05-28 01:54 pmNNE 9.9 11.1----29.92- 61.3-----
2024-05-28 01:48 pmNNE 9.9 12.0----29.92- 61.3-----
2024-05-28 01:42 pmNNE 8.9 12.0----29.92- 61.3-----
2024-05-28 01:36 pmNNE 8.0 9.9----29.92- 61.0-----
2024-05-28 01:30 pmNNE 8.0 11.1----29.92- 60.8-----
2024-05-28 01:24 pmNNE 8.0 9.9----29.92- 60.6-----
2024-05-28 01:18 pmNNE 6.0 8.0----29.92- 60.8-----
2024-05-28 01:12 pmNNE 7.0 8.0----29.92- 60.8-----
2024-05-28 01:06 pmNNE 7.0 8.9----29.92- 60.6-----
2024-05-28 01:00 pmNNE 7.0 8.9----29.92+0.04 60.8-----
2024-05-28 12:54 pmNNE 6.0 8.0----29.92- 60.8-----
2024-05-28 12:48 pmNNE 6.0 8.0----29.92- 60.6-----
2024-05-28 12:42 pmNNE 7.0 8.9----29.92- 60.4-----
2024-05-28 12:36 pmNNE 7.0 8.9----29.92- 60.4-----
2024-05-28 12:30 pmNNE 8.0 12.0----29.92- 60.6-----
2024-05-28 12:24 pmNNE 8.0 9.9----29.92- 60.4-----
2024-05-28 12:18 pm NE 7.0 9.9----29.91- 60.6-----
2024-05-28 12:12 pmNNE 8.0 9.9----29.91- 60.3-----
2024-05-28 12:06 pm NE 8.0 9.9----29.91- 60.4-----
2024-05-28 12:00 pm NE 8.0 9.9----29.91+0.03 60.8-----
2024-05-28 11:54 am NE 7.0 9.9----29.91- 61.0-----
2024-05-28 11:48 am NE 8.0 9.9----29.91- 61.0-----
2024-05-28 11:42 am NE 8.0 9.9----29.91- 60.6-----
2024-05-28 11:36 am NE 7.0 9.9----29.91- 60.8-----
2024-05-28 11:30 am NE 8.0 9.9----29.91- 60.8-----
2024-05-28 11:24 am NE 7.0 8.9----29.90- 61.0-----
2024-05-28 11:18 am NE 5.1 8.0----29.90- 61.2-----
2024-05-28 11:12 am NE 6.0 8.0----29.90- 61.0-----
2024-05-28 11:06 am NE 5.1 7.0----29.90- 61.0-----
2024-05-28 11:00 am NE 5.1 7.0----29.90+0.04 61.0-----
2024-05-28 10:54 am NE 5.1 7.0----29.90- 60.8-----
2024-05-28 10:48 am NE 5.1 6.0----29.90- 61.0-----
2024-05-28 10:42 am NE 4.1 6.0----29.90- 61.0-----
2024-05-28 10:36 am NE 5.1 7.0----29.89- 61.0-----
2024-05-28 10:30 am NE 4.1 6.0----29.89- 60.8-----
2024-05-28 10:24 am NE 4.1 5.1----29.89- 60.6-----
2024-05-28 10:18 am NE 2.9 5.1----29.89- 60.4-----
2024-05-28 10:12 am NE 2.9 4.1----29.89- 60.6-----
2024-05-28 10:06 am NE 4.1 5.1----29.88- 60.4-----
2024-05-28 10:00 am NE 4.1 5.1----29.88+0.03 60.3-----
2024-05-28 09:54 amNNE 4.1 5.1----29.88- 60.4-----
2024-05-28 09:48 amNNE 4.1 5.1----29.88- 60.4-----
2024-05-28 09:42 amNNE 4.1 5.1----29.88- 60.6-----
2024-05-28 09:36 amNNE 4.1 5.1----29.88- 60.4-----
2024-05-28 09:30 amNNE 4.1 5.1----29.88- 60.4-----
2024-05-28 09:24 am N 1.9 5.1----29.88- 60.4-----
2024-05-28 09:18 am N 2.9 5.1----29.88- 60.4-----
2024-05-28 09:12 am N 2.9 4.1----29.88- 60.4-----
2024-05-28 09:06 am N 2.9 5.1----29.88- 60.3-----
2024-05-28 09:00 amNNW 2.9 5.1----29.88+0.05 60.3-----
2024-05-28 08:54 am N 4.1 6.0----29.88- 59.9-----
2024-05-28 08:48 am NW 4.1 6.0----29.88- 60.1-----
2024-05-28 08:42 am NW 2.9 5.1----29.88- 60.3-----
2024-05-28 08:36 am NW 4.1 5.1----29.88- 60.1-----
2024-05-28 08:30 amWNW 4.1 6.0----29.87- 59.5-----
2024-05-28 08:24 am NW 4.1 6.0----29.87- 59.4-----
2024-05-28 08:18 amWNW 4.1 7.0----29.87- 59.4-----
2024-05-28 08:12 am NW 4.1 6.0----29.87- 59.2-----
2024-05-28 08:06 amWNW 2.9 5.1----29.86- 59.5-----
2024-05-28 08:00 amWNW 4.1 6.0----29.86+0.05 59.4-----
2024-05-28 07:54 amWNW 2.9 5.1----29.86- 59.4-----
2024-05-28 07:48 am W 4.1 6.0----29.86- 59.0-----
2024-05-28 07:42 am W 2.9 6.0----29.86- 59.0-----
2024-05-28 07:36 am W 4.1 6.0----29.86- 58.8-----
2024-05-28 07:30 am W 4.1 6.0----29.86- 58.5-----
2024-05-28 07:24 am W 5.1 8.0----29.86- 58.3-----
2024-05-28 07:18 am W 5.1 7.0----29.86- 58.1-----
2024-05-28 07:12 am W 4.1 7.0----29.85- 57.7-----
2024-05-28 07:06 am W 2.9 8.0----29.85- 57.7-----
2024-05-28 07:00 am W 2.9 5.1----29.85+0.04 57.4-----
2024-05-28 06:54 am W 1.9 5.1----29.85- 57.4-----
2024-05-28 06:48 am W 1.9 5.1----29.85- 57.2-----
2024-05-28 06:42 amWSW 1.0 2.9----29.85- 57.0-----
2024-05-28 06:36 am W 1.9 5.1----29.84- 57.0-----
2024-05-28 06:30 am W 2.9 5.1----29.84- 57.0-----
2024-05-28 06:24 amWSW 1.0 2.9----29.84- 56.8-----
2024-05-28 06:18 amWSW 1.9 4.1----29.84- 56.8-----
2024-05-28 06:12 amWSW 1.9 6.0----29.84- 56.7-----
2024-05-28 06:06 am W 4.1 6.0----29.83- 56.7-----
2024-05-28 06:00 am W 1.9 5.1----29.83+0.03 56.7-----
2024-05-28 05:54 am W 2.9 4.1----29.83- 56.7-----
2024-05-28 05:48 am W 1.9 4.1----29.83- 56.5-----
2024-05-28 05:42 am W 1.9 5.1----29.82- 56.7-----
2024-05-28 05:36 am W 1.9 4.1----29.82- 56.5-----
2024-05-28 05:30 am- 0.0 1.9----29.82- 56.3-----
2024-05-28 05:24 am- 0.0 2.9----29.82- 56.5-----
2024-05-28 05:18 am W 1.9 4.1----29.82- 56.5-----
2024-05-28 05:12 am- 0.0 1.9----29.82- 56.5-----
2024-05-28 05:06 am- 0.0 4.1----29.82- 56.5-----
2024-05-28 05:00 amWSW 1.0 2.9----29.81+0.02 56.5-----
2024-05-28 04:54 am- 0.0 4.1----29.81- 56.5-----
2024-05-28 04:48 am- 0.0 2.9----29.81- 56.5-----
2024-05-28 04:42 am- 0.0 2.9----29.81- 56.7-----
2024-05-28 04:36 am W 1.9 2.9----29.81- 56.8-----
2024-05-28 04:30 amWSW 1.9 4.1----29.81- 56.8-----
2024-05-28 04:24 amWSW 1.0 2.9----29.81- 57.0-----
2024-05-28 04:18 amWSW 1.0 4.1----29.81- 57.2-----
2024-05-28 04:12 amWSW 1.0 4.1----29.81- 57.4-----
2024-05-28 04:06 amWSW 1.0 4.1----29.81- 57.4-----
2024-05-28 04:00 am W 1.9 5.1----29.81+0.02 57.6-----
2024-05-28 03:54 amWSW 2.9 5.1----29.80- 57.6-----
2024-05-28 03:48 am W 1.9 6.0----29.80- 57.7-----
2024-05-28 03:42 am W 5.1 8.0----29.80- 57.7-----
2024-05-28 03:36 am W 4.1 7.0----29.80- 57.9-----
2024-05-28 03:30 am W 5.1 8.0----29.80- 57.9-----
2024-05-28 03:24 am W 4.1 7.0----29.80- 57.9-----
2024-05-28 03:18 am W 2.9 6.0----29.80- 58.1-----
2024-05-28 03:12 am W 2.9 5.1----29.80- 58.1-----
2024-05-28 03:06 am W 1.9 5.1----29.80- 58.3-----
2024-05-28 03:00 am W 1.9 6.0----29.80+0.01 58.5-----
2024-05-28 02:54 am W 4.1 5.1----29.80- 58.5-----
2024-05-28 02:48 am W 4.1 5.1----29.80- 58.6-----
2024-05-28 02:42 am W 2.9 5.1----29.79- 58.6-----
2024-05-28 02:36 am- 0.0 2.9----29.80- 58.5-----
2024-05-28 02:30 am- 0.0 1.9----29.79- 58.3-----
2024-05-28 02:24 am- 0.0 1.0----29.79- 58.3-----
2024-05-28 02:18 am- 0.0 1.0----29.79- 58.3-----
2024-05-28 02:12 am- 0.0 1.0----29.79- 58.3-----
2024-05-28 02:06 am- 0.0 2.9----29.79- 58.3-----
2024-05-28 02:00 amWSW 1.0 2.9----29.79+0.01 58.6-----
2024-05-28 01:54 am W 2.9 5.1----29.79- 58.6-----
2024-05-28 01:48 am W 1.9 5.1----29.79- 58.3-----
2024-05-28 01:42 amWSW 1.0 6.0----29.79- 58.1-----
2024-05-28 01:36 am W 2.9 6.0----29.79- 58.3-----
2024-05-28 01:30 am W 5.1 6.0----29.79- 58.3-----
2024-05-28 01:24 am W 5.1 8.0----29.79- 58.5-----
2024-05-28 01:18 am W 4.1 8.0----29.79- 58.5-----
2024-05-28 01:12 amWSW 2.9 8.9----29.79- 58.3-----
2024-05-28 01:06 amWSW 1.9 7.0----29.78- 58.3-----
2024-05-28 01:00 amWSW 1.9 7.0----29.79+0.02 58.3-----
2024-05-28 12:54 amWSW 1.9 5.1----29.79- 58.5-----
2024-05-28 12:48 amWSW 2.9 5.1----29.79- 58.5-----
2024-05-28 12:42 amWSW 1.9 6.0----29.79- 58.6-----
2024-05-28 12:36 amWSW 2.9 6.0----29.79- 58.6-----
2024-05-28 12:30 amWSW 4.1 8.9----29.78- 58.6-----
2024-05-28 12:24 amWSW 2.9 9.9----29.78- 59.0-----
2024-05-28 12:18 amWSW 4.1 9.9----29.78- 59.0-----
2024-05-28 12:12 amWSW 4.1 8.0----29.78- 58.8-----
2024-05-28 12:06 amWSW 2.9 6.0----29.78- 58.5-----
2024-05-28 12:00 amWSW 1.0 5.1----29.78+0.01 58.1-----
2024-05-27 11:54 pmWSW 1.9 4.1----29.78- 58.1-----
2024-05-27 11:48 pmWSW 1.0 2.9----29.78- 58.1-----
2024-05-27 11:42 pm- 0.0 1.0----29.78- 57.9-----
2024-05-27 11:36 pm- 0.0 0.0----29.78- 57.9-----
2024-05-27 11:30 pm- 0.0 1.0----29.78- 58.1-----
2024-05-27 11:24 pm- 0.0 1.0----29.78- 58.3-----
2024-05-27 11:18 pm- 0.0 1.0----29.78- 58.5-----
2024-05-27 11:12 pm- 0.0 2.9----29.78- 58.5-----
2024-05-27 11:06 pmWSW 1.0 4.1----29.78- 58.6-----
2024-05-27 11:00 pmWSW 2.9 4.1----29.78+0.03 58.8-----
2024-05-27 10:54 pm W 1.9 6.0----29.78- 58.8-----
2024-05-27 10:48 pmWSW 1.9 7.0----29.77- 58.8-----
2024-05-27 10:42 pmWSW 1.9 6.0----29.78- 58.6-----
2024-05-27 10:36 pmWSW 1.0 6.0----29.77- 58.5-----
2024-05-27 10:30 pmWSW 1.9 5.1----29.77- 58.5-----
2024-05-27 10:24 pmWSW 1.9 5.1----29.77- 58.5-----
2024-05-27 10:18 pmWSW 2.9 6.0----29.77- 58.5-----
2024-05-27 10:12 pmWSW 2.9 7.0----29.77- 58.3-----
2024-05-27 10:06 pmWSW 2.9 6.0----29.77- 58.1-----
2024-05-27 10:00 pmWSW 2.9 6.0----29.77+0.05 58.3-----
2024-05-27 09:54 pmWSW 1.9 6.0----29.77- 58.3-----
2024-05-27 09:48 pmWSW 2.9 5.1----29.77- 58.1-----
2024-05-27 09:42 pmWSW 1.9 7.0----29.77- 57.9-----
2024-05-27 09:36 pmWSW 4.1 7.0----29.77- 57.7-----
2024-05-27 09:30 pmWSW 2.9 6.0----29.78- 57.7-----
2024-05-27 09:24 pmWSW 1.0 4.1----29.77- 57.6-----
2024-05-27 09:18 pm- 0.0 5.1----29.77- 57.6-----
2024-05-27 09:12 pm- 0.0 2.9----29.77- 57.6-----
2024-05-27 09:06 pm- 0.0 2.9----29.77- 57.6-----
2024-05-27 09:00 pmWSW 1.0 4.1----29.77+0.07 57.6-----
2024-05-27 08:54 pm- 0.0 4.1----29.76- 57.6-----
2024-05-27 08:48 pm W 4.1 5.1----29.76- 57.7-----
2024-05-27 08:42 pm W 1.9 6.0----29.76- 57.7-----
2024-05-27 08:36 pm W 2.9 6.0----29.76- 57.9-----
2024-05-27 08:30 pm W 2.9 6.0----29.76- 57.9-----
2024-05-27 08:24 pmWNW 6.0 9.9----29.76- 58.3-----
2024-05-27 08:18 pmWNW 8.0 12.0----29.76- 58.8-----
2024-05-27 08:12 pmWNW 8.0 11.1----29.76- 59.4-----
2024-05-27 08:06 pm W 11.1 15.0----29.75- 60.3-----
2024-05-27 08:00 pm W 6.0 9.9----29.75- 60.4-----
2024-05-27 07:54 pm W 6.0 9.9----29.75- 60.1-----
2024-05-27 07:48 pm W 7.0 12.0----29.75- 60.1-----
2024-05-27 07:42 pm W 9.9 17.1----29.75- 60.4-----
2024-05-27 07:36 pmWNW 12.0 17.1----29.74- 61.7-----
2024-05-27 07:30 pm NW 9.9 15.9----29.74- 62.8-----
2024-05-27 07:24 pm W 5.1 11.1----29.73- 61.2-----
2024-05-27 07:18 pm W 5.1 7.0----29.73- 61.7-----
2024-05-27 07:12 pm W 5.1 8.0----29.72- 62.2-----
2024-05-27 07:06 pm W 4.1 5.1----29.72- 62.1-----
2024-05-27 07:00 pm W 2.9 4.1----29.72+0.04 62.1-----
2024-05-27 06:54 pm W 2.9 2.9----29.72- 61.9-----
2024-05-27 06:48 pm- 0.0 0.0----29.71-------
2024-05-27 06:42 pm- 0.0 0.0----29.71-------
2024-05-27 06:36 pm- 0.0 0.0----29.71-------
2024-05-27 06:30 pm- 0.0 0.0----29.71- 61.3-----
2024-05-27 06:24 pm- 0.0 1.9----29.71- 61.0-----
2024-05-27 06:18 pm- 0.0 5.1----29.71- 61.2-----
2024-05-27 06:12 pmWSW 1.9 5.1----29.70- 60.8-----
2024-05-27 06:06 pm W 1.0 2.9----29.70- 61.2-----
2024-05-27 06:00 pmESE 1.0 1.9----29.70+0.04 61.0-----
2024-05-27 05:54 pm W 1.9 2.9----29.70- 60.4-----
2024-05-27 05:48 pm- 0.0 1.0----29.71- 59.5-----
2024-05-27 05:42 pm W 1.0 5.1----29.71- 59.9-----
2024-05-27 05:36 pm W 4.1 7.0----29.71- 60.3-----
2024-05-27 05:30 pm W 8.0 11.1----29.71- 60.4-----
2024-05-27 05:24 pm NW 8.9 19.0----29.72- 61.5-----
2024-05-27 05:18 pm NW 13.0 15.9----29.72- 62.6-----
2024-05-27 05:12 pm NW 8.9 12.0----29.71- 63.5-----
2024-05-27 05:06 pmWNW 2.9 4.1----29.70- 63.7-----
2024-05-27 05:00 pm--------- 64.0-----
2024-05-27 04:54 pm--------- 63.9-----
2024-05-27 04:48 pmENE 1.9 2.9----29.69- 63.7-----
2024-05-27 04:42 pm E 1.0 2.9----29.69- 63.7-----
2024-05-27 04:36 pm NE 1.9 2.9----29.69- 63.7-----
2024-05-27 04:30 pmENE 2.9 4.1----29.68-------
2024-05-27 04:24 pm E 2.9 4.1----29.68-------
2024-05-27 04:18 pmENE 1.9 2.9----29.68- 63.7-----
2024-05-27 04:12 pmENE 1.0 4.1----29.68- 63.9-----
2024-05-27 04:06 pm NE 1.9 2.9----29.67- 63.7-----
2024-05-27 04:00 pm NE 1.9 2.9----29.67+0.04 63.9-----
2024-05-27 03:54 pmNNE 1.9 2.9----29.67- 63.9-----